Tracking 20621 objects as of 30-Mar-2020
HD Live streaming from Space Station
objects crossing your sky now

NANOSAT(1)

Track NANOSAT(1) now!
10-day predictions
NANOSAT(1) is classified as:


NORAD ID: 28493
Int'l Code: 2004-049B
Perigee: 653.6 km
Apogee: 660.1 km
Inclination: 98.1 °
Period: 97.7 minutes
Semi major axis: 7027 km
RCS: 0.2736 m2 (medium)
Launch date: December 18, 2004
Source: Spain (SPN)
Launch site: FRENCH GUIANA (FRGUI)

Will maintain contact with Spanish zone in Antarctica; extremely small magnetic and solar sensors.
aabbcc
Your satellite tracking list
Your tracking list is empty




NASA's NSSDC Master Catalog

Two Line Element Set (TLE):
1 28493U 04049B   20089.76267418 +.00000053 +00000-0 +16060-4 0  9998
2 28493 098.1181 179.4382 0004623 017.3557 342.7808 14.73562649820619
Source of the keplerian elements: AFSPC